Mombasa, Kenya

12:06 PM EAT on May 23, 2017 (GMT +0300)
Mombasa

Weather History for HKMO - October, 2013

Change the Weather History Date:

Sunday, October 20, 2013

  Actual Average Record
Temperature  
Mean Temperature 79 °F -  
Max Temperature 88 °F 88 °F 88 °F (2013)
Min Temperature 70 °F 71 °F 70 °F (2013)
Cooling Degree Days 14    
Growing Degree Days 29 (Base 50)    
Moisture  
Dew Point 70 °F    
Average Humidity 76    
Maximum Humidity 94    
Minimum Humidity 48    
Precipitation  
Precipitation 0.00 in 0.14 in - ()
Sea Level Pressure  
Sea Level Pressure 29.94 in    
Wind  
Wind Speed 5 mph ()    
Max Wind Speed 14 mph    
Max Gust Speed -    
Visibility 8.1 miles    
Events      
Averages and records for this station are not official NWS values.
T = Trace of Precipitation, MM = Missing Value Source: Averaged Metar Reports

Daily Weather History Graph

Daily Weather History Graph

Search for Another Location

Airport or City:

Trip Planner

Search our weather history database for the weather conditions in past years. The results will help you decide how hot, cold, wet, or windy it might be!

Date:

Astronomy

Oct. 20, 2013 Rise Set
Actual Time 5:59 AM EAT 6:12 PM EAT
Civil Twilight 5:38 AM EAT 6:33 PM EAT
Nautical Twilight 5:14 AM EAT 6:58 PM EAT
Astronomical Twilight 4:49 AM EAT 7:22 PM EAT
Moon 7:31 PM EAT (10/20) 6:55 AM EAT (10/20)
Length of Visible Light 12h 54m
Length of Day
12h 12m
Full, 98% of the Moon is Illuminated
Oct 20
Full
Oct 27
Last Quarter
Nov 3
New
Nov 10
First Quarter
Nov 17
Full

Hourly Weather History & Observations

Time (EAT) Temp. Heat Index Dew Point Humidity Pressure Visibility Wind Dir Wind Speed Gust Speed Precip Events Conditions
12:00 AM 73.4 °F - 69.8 °F 88% 29.95 in 6.2 mi Calm Calm - N/A   Partly Cloudy
1:00 AM 73.4 °F - 69.8 °F 88% 29.95 in 6.2 mi Calm Calm - N/A   Partly Cloudy
3:00 AM 73 °F - 71 °F 92% 29.93 in 16 mi Calm Calm - -   Scattered Clouds
3:00 AM 73.4 °F - 71.6 °F 94% 29.92 in 6.2 mi Calm Calm - N/A   Partly Cloudy
4:00 AM 73.4 °F - 71.6 °F 94% 29.92 in 6.2 mi SSW 3.5 mph - N/A   Partly Cloudy
5:00 AM 73.4 °F - 71.6 °F 94% 29.95 in 6.2 mi WSW 5.8 mph - N/A   Partly Cloudy
6:00 AM 73.4 °F - 69.8 °F 88% 29.95 in 6.2 mi Calm Calm - N/A   Scattered Clouds
7:00 AM 73.4 °F - 71.6 °F 94% 29.98 in 6.2 mi West 5.8 mph - N/A   Scattered Clouds
8:00 AM 77.0 °F - 71.6 °F 83% 30.01 in 6.2 mi WSW 5.8 mph - N/A   Scattered Clouds
9:00 AM 80 °F - 72 °F 70% 30.01 in 19 mi SSW 11.5 mph - -   Mostly Cloudy
9:00 AM 78.8 °F - 71.6 °F 78% 30.01 in 6.2 mi SSW 11.5 mph - N/A   Mostly Cloudy
10:00 AM 84.2 °F 89.6 °F 71.6 °F 66% 30.01 in 6.2 mi SSE 13.8 mph - N/A   Scattered Clouds
11:00 AM 84.2 °F 87.3 °F 68.0 °F 58% 29.98 in 6.2 mi SE 11.5 mph - N/A   Scattered Clouds
12:00 PM 86.0 °F 89.4 °F 68.0 °F 55% 29.98 in 6.2 mi East 12.7 mph - N/A   Partly Cloudy
2:00 PM 86.0 °F 89.4 °F 68.0 °F 55% 29.92 in 6.2 mi SE 12.7 mph - N/A   Partly Cloudy
3:00 PM 85 °F - 68 °F 48% 29.90 in 19 mi SSE 9.2 mph - -   Scattered Clouds
3:00 PM 84.2 °F 87.3 °F 68.0 °F 58% 29.89 in 6.2 mi SSE 9.2 mph - N/A   Partly Cloudy
4:00 PM 84.2 °F 87.3 °F 68.0 °F 58% 29.86 in 6.2 mi SE 13.8 mph - N/A   Partly Cloudy
5:00 PM 82.4 °F 86.3 °F 69.8 °F 66% 29.86 in 6.2 mi SE 11.5 mph - N/A   Partly Cloudy
8:00 PM 78.8 °F - 71.6 °F 78% 29.89 in 6.2 mi South 5.8 mph - N/A   Partly Cloudy
9:00 PM 77 °F - 71 °F 78% 29.91 in 16 mi SSE 4.6 mph - -   Scattered Clouds
9:00 PM 77.0 °F - 71.6 °F 83% 29.92 in 6.2 mi SSE 4.6 mph - N/A   Partly Cloudy
10:00 PM 78.8 °F - 71.6 °F 78% 29.92 in 6.2 mi SSE 9.2 mph - N/A   Scattered Clouds
11:00 PM 77.0 °F - 71.6 °F 83% 29.92 in 6.2 mi Calm Calm - N/A   Partly Cloudy